Regional Weather Roundup
Issued by NWS

Home | Current Version | Previous Version | Text Only | Print | Product List | Glossary On
Versions: 1 2 3 4 5 6 7 8 9 10 11 12 13 14 15 16 17 18 19 20 21 22 23 24 25 26 27 28 29 30 31 32 33 34 35 36 37 38 39 40 41 42 43 44 45 46 47 48 49 50
000
ASUS43 KLSX 280607
RWRMO

WEATHER SUMMARY FOR MISSOURI
NATIONAL WEATHER SERVICE SPRINGFIELD MO
100 AM CDT MON JUL 28 2014

NOTE: "FAIR" INDICATES FEW OR NO CLOUDS BELOW 12,000 FEET WITH NO
       SIGNIFICANT WEATHER AND/OR OBSTRUCTIONS TO VISIBILITY.
       CURRENT SKY AND/OR WEATHER CONDITIONS ARE NOT AVAILABLE FOR
       CHILLICOTHE AND FARMINGTON.

MOZ001>031-035>038-043-044-053-054-280700-
...NORTHERN AND WESTERN MISSOURI...

CITY           SKY/WX    TMP DP  RH WIND       PRES   REMARKS
KANSAS CTY INT CLEAR     65  58  78 N6        30.15R
6HR MIN TEMP:  65; 6HR MAX TEMP:  82;

KANSAS C DTWN  CLEAR     70  58  65 NW3       30.13R
6HR MIN TEMP:  70; 6HR MAX TEMP:  85;

LEE`S SUMMIT   CLEAR     69  57  65 N8        30.14R
6HR MIN TEMP:  69; 6HR MAX TEMP:  83;

ST JOSEPH      CLEAR     61  58  90 CALM      30.15R
6HR MIN TEMP:  61; 6HR MAX TEMP:  81;

CHILLICOTHE      N/A     67  56  67 CALM      30.13R
6HR MIN TEMP:  67; 6HR MAX TEMP:  82;

KIRKSVILLE     CLEAR     63  57  81 NW7       30.09S
6HR MIN TEMP:  63; 6HR MAX TEMP:  76;


$$
MOZ066>068-077>081-088>096-101>105-280700-
...SOUTHWEST MISSOURI...

CITY           SKY/WX    TMP DP  RH WIND       PRES   REMARKS
SPRINGFIELD    CLEAR     70  58  65 N8        30.10S
6HR MIN TEMP:  67; 6HR MAX TEMP:  84;

JOPLIN         CLEAR     69  60  73 N3        30.13R
6HR MIN TEMP:  67; 6HR MAX TEMP:  84;


$$
MOZ032>034-039>042-045>050-055>058-069>072-280700-
...CENTRAL MISSOURI...

CITY           SKY/WX    TMP DP  RH WIND       PRES   REMARKS
COLUMBIA       CLEAR     67  58  72 NW9       30.08R
6HR MIN TEMP:  67; 6HR MAX TEMP:  84;

JEFFERSON CITY CLEAR     70  57  63 NW6       30.07R
6HR MIN TEMP:  70; 6HR MAX TEMP:  85;

ROLLA          CLEAR     68  56  65 N8        30.06R
6HR MIN TEMP:  68; 6HR MAX TEMP:  84;

SEDALIA        CLEAR     65  59  81 NW6       30.11R
6HR MIN TEMP:  65; 6HR MAX TEMP:  83;

WHITEMAN AFB   CLEAR     67  49  52 N12       30.11R
OSAGE BEACH      N/A     70  55  60 NW3       30.09R

$$
MOZ051-052-059>065-280700-
...EAST CENTRAL MISSOURI...

CITY           SKY/WX    TMP DP  RH WIND       PRES   REMARKS
ST LOUIS INTL  CLEAR     72  58  61 NW13      30.01R
6HR MIN TEMP:  72; 6HR MAX TEMP:  87;

SPIRIT OF STL  CLEAR     70  58  65 NW7       30.01R
6HR MIN TEMP:  70; 6HR MAX TEMP:  86;

ST CHARLES     CLEAR     70  57  63 NW10      30.00R
6HR MIN TEMP:  70; 6HR MAX TEMP:  84;


$$
MOZ072>076-082>087-097>100-106>115-280700-
...SOUTH CENTRAL AND SOUTHEAST MISSOURI...

CITY           SKY/WX    TMP DP  RH WIND       PRES   REMARKS
CAPE GIRARDEAU CLEAR     73  60  63 N9        29.98R
6HR MIN TEMP:  70; 6HR MAX TEMP:  86;

FARMINGTON     CLEAR     70  57  64 NW5       30.04S
6HR MIN TEMP:  70; 6HR MAX TEMP:  88;

POPLAR BLUFF   CLEAR     73  60  63 N7        29.98R
6HR MIN TEMP:  72; 6HR MAX TEMP:  88;

WEST PLAINS    CLEAR     72  57  59 NW6       30.08R
6HR MIN TEMP:  72; 6HR MAX TEMP:  84;


$$



USA.gov is the U.S. government's official web portal to all federal, state and local government web resources and services.